Theta_e
349 349 354 356 356 357 358 359 359 359 359 359 358 358 357 356 356 355 355 355 354 354 354 354 355 354 353 352 352 352 352 352 352 352 351 351 351 349 349 348 347 347 346 345 344 344 344 344 343 343 342 341 342 342 342 343 346 345 345 345 345 345 344 344 344 345 346 347 347 347 348 347 346 346 346 344 344 345 343 343 343 344 345 344 345
348 351 353 357 356 357 357 358 359 359 359 358 358 357 357 356 356 355 355 355 354 354 354 355 355 354 353 352 352 352 352 352 352 351 351 350 350 348 347 347 347 347 345 344 345 344 343 344 343 343 344 343 343 342 342 344 344 344 345 344 344 344 344 344 345 345 346 347 347 347 346 346 346 345 346 346 347 346 344 343 343 343 343 345 345
349 349 353 355 356 356 357 357 358 358 358 357 357 357 356 356 355 355 355 355 355 355 355 355 355 353 353 352 352 352 352 352 352 352 351 350 348 347 347 347 346 345 345 345 345 344 344 343 343 343 343 344 343 342 342 342 342 343 345 344 344 344 345 345 345 346 347 347 347 346 346 346 345 345 346 346 346 346 345 345 343 344 343 345 344
348 348 352 355 355 356 356 357 357 357 357 356 357 357 356 355 355 355 355 355 355 355 355 355 354 353 353 352 351 351 351 350 349 349 349 349 348 348 347 347 345 345 346 345 345 345 345 345 345 345 344 344 343 343 342 342 342 342 342 343 343 343 343 343 343 344 347 349 348 347 346 344 344 345 346 346 345 345 344 344 345 345 344 345 344
348 347 350 354 355 355 355 356 356 356 356 356 356 356 355 355 355 355 355 355 355 355 355 354 353 353 351 351 350 350 350 349 349 348 350 349 348 348 347 345 345 347 346 345 346 346 346 346 346 347 345 344 343 343 343 342 342 341 341 341 342 342 342 342 341 341 343 349 349 345 341 344 343 343 344 344 345 344 343 343 343 344 344 344 343
347 348 349 351 352 355 355 355 355 355 356 355 355 355 355 355 355 355 355 355 355 354 354 353 353 352 351 350 350 349 349 349 348 348 349 351 351 348 345 345 347 347 346 345 346 346 346 347 347 347 347 346 344 343 343 343 343 342 341 341 341 342 342 341 341 341 341 343 349 341 340 341 342 342 344 344 344 343 342 342 342 342 342 342 342
348 348 349 348 349 352 354 354 355 355 355 355 355 355 355 355 355 355 355 354 354 353 353 352 351 351 350 350 350 349 349 347 347 347 347 350 350 348 346 348 348 347 346 346 346 347 347 347 347 348 348 348 346 343 342 343 342 341 341 339 339 341 340 339 341 341 345 342 340 339 336 338 340 340 342 343 343 342 341 341 341 340 341 341 341
348 346 346 347 349 353 354 354 354 355 355 355 355 355 355 355 355 355 354 354 353 353 352 351 351 350 350 349 349 349 349 349 348 347 348 349 348 348 349 348 349 348 347 347 348 349 348 348 349 348 348 348 347 346 343 342 342 340 339 339 338 338 339 340 342 346 346 335 337 337 337 337 338 338 341 341 342 340 341 341 341 340 339 340 339
346 346 347 347 352 352 352 353 353 354 354 354 355 355 355 354 354 354 354 354 353 352 352 351 350 350 350 349 349 349 348 348 348 347 347 348 348 349 350 349 349 348 348 349 350 349 349 348 348 348 347 347 346 346 344 341 341 340 338 337 339 338 338 340 340 342 340 338 337 338 337 337 337 338 338 339 340 341 340 340 339 339 338 338 337
346 347 348 350 352 352 352 352 352 353 354 353 354 354 354 354 353 353 352 353 353 352 351 351 350 350 350 350 349 348 349 349 348 347 347 348 349 351 352 351 350 350 350 350 350 349 349 348 348 348 347 346 345 345 344 342 340 339 338 337 338 339 341 341 343 347 339 339 338 338 339 341 335 334 336 338 338 339 339 339 340 339 338 336 337
346 347 348 350 351 351 351 351 352 353 353 353 353 353 353 353 352 352 352 352 351 351 351 350 350 350 350 350 349 349 350 349 349 348 349 349 350 352 352 352 351 350 350 350 350 349 348 348 347 346 345 345 346 345 345 342 341 338 337 337 335 337 339 338 341 337 336 333 335 335 338 341 337 338 339 339 338 338 338 338 337 336 335 335 337
346 346 348 350 354 350 350 351 351 352 353 353 353 353 352 352 352 351 351 351 351 351 351 351 351 351 351 350 350 350 350 350 349 350 349 349 350 350 351 351 350 351 350 350 349 348 348 347 346 346 345 346 346 345 345 344 341 339 337 336 338 336 338 338 341 341 340 339 338 339 338 337 337 337 339 340 339 338 337 336 335 336 337 336 335
345 345 349 352 351 351 350 350 351 352 352 352 352 352 352 352 351 351 351 351 351 352 351 350 351 351 350 349 349 349 349 349 349 349 348 349 351 351 350 351 351 351 350 349 348 348 347 346 346 345 345 346 346 346 346 345 342 340 338 336 336 337 340 341 341 339 338 337 338 337 336 337 336 337 337 337 336 335 335 334 334 335 336 336 334
344 345 348 347 349 352 350 349 350 351 351 352 352 352 352 352 351 352 352 351 351 351 351 350 350 350 350 350 350 350 350 350 349 349 348 349 349 349 350 351 350 349 349 348 347 347 346 345 345 344 345 346 345 346 346 345 343 340 338 337 337 338 341 344 344 338 337 337 338 335 334 335 335 336 337 338 337 337 337 336 336 336 335 334 334
344 345 348 348 348 350 352 350 350 350 350 350 350 351 351 351 351 351 351 351 351 350 351 350 350 350 350 349 349 350 351 350 349 348 348 349 349 348 348 349 349 348 347 347 346 345 345 344 344 345 345 345 346 346 345 345 343 340 337 338 337 339 340 340 336 339 338 337 337 336 336 336 338 337 337 337 337 337 336 335 335 335 335 335 334
347 346 346 348 347 349 350 352 351 350 350 350 350 351 351 351 351 351 351 351 351 351 350 350 349 349 349 348 350 350 350 349 348 348 349 349 348 348 348 348 348 347 346 346 345 345 344 344 345 345 345 345 346 346 345 344 343 341 339 339 337 341 343 345 338 335 333 332 334 336 334 333 338 336 336 336 336 335 335 334 334 334 334 333 333
348 346 346 346 348 347 347 350 350 351 350 350 350 350 350 350 350 350 351 350 350 351 350 349 349 349 349 349 350 350 349 348 348 348 349 349 349 349 348 347 347 346 346 345 345 345 345 345 345 345 345 345 344 345 345 343 342 341 340 337 340 342 345 350 339 341 340 339 337 335 335 335 335 334 334 333 333 334 334 334 334 334 333 333 333
347 347 345 347 347 347 348 349 351 352 352 351 350 350 350 350 350 350 350 350 350 350 351 350 350 349 348 349 349 349 348 348 347 349 349 349 348 348 347 347 346 346 345 345 345 345 345 345 345 345 345 345 345 344 344 343 342 341 339 341 340 345 345 350 341 341 339 339 336 336 336 335 336 336 336 336 336 337 336 335 335 334 336 336 334
345 346 346 347 347 348 347 349 351 349 351 350 350 352 350 350 350 350 350 350 350 350 350 349 349 349 348 348 349 349 349 348 348 349 348 348 347 347 347 346 345 345 344 344 344 345 345 345 345 345 345 345 345 344 344 343 342 340 341 339 341 343 345 346 338 339 338 337 337 335 334 339 336 334 335 336 337 335 335 334 333 333 333 332 333
345 346 346 347 347 347 347 347 348 349 349 348 349 351 351 350 350 350 350 350 350 350 349 349 349 348 347 347 347 349 349 348 347 348 347 347 347 346 346 346 345 344 344 344 344 344 345 345 345 345 345 345 345 344 344 343 342 341 340 341 342 341 346 338 337 338 338 336 336 335 337 336 335 335 336 335 337 337 336 336 335 334 334 333 333
346 346 346 346 347 348 348 345 347 348 349 348 349 350 351 350 350 349 349 349 349 349 349 348 349 348 348 347 349 349 348 348 348 347 347 346 346 346 345 345 344 344 344 343 343 343 343 344 344 345 345 345 345 344 343 343 342 343 341 343 340 343 341 339 338 336 333 331 332 332 335 335 334 333 334 335 335 334 334 334 333 333 333 333 333
343 343 346 346 346 346 346 346 347 347 349 348 347 347 350 349 348 349 349 350 349 349 350 348 348 349 348 347 348 349 347 347 347 346 346 346 346 345 345 344 344 344 344 343 343 343 343 343 344 344 346 345 344 345 344 344 343 341 343 342 341 341 340 338 339 336 334 332 334 336 336 336 336 336 336 336 335 335 334 333 333 333 333 332 332
342 343 345 346 346 345 346 346 347 348 349 349 346 346 348 347 346 346 345 347 348 348 346 345 345 344 344 344 347 349 345 341 344 345 347 345 346 345 345 344 344 344 343 343 343 343 342 341 342 344 345 345 344 343 343 342 342 344 344 343 346 340 339 339 338 337 336 335 336 338 337 336 336 336 336 335 335 335 334 334 334 333 332 331 331
343 344 344 345 346 345 347 347 346 348 350 347 346 346 344 345 343 344 344 345 346 345 345 343 341 342 340 344 344 344 343 345 342 343 345 346 345 344 344 344 343 343 343 343 342 342 341 340 339 341 344 345 345 344 341 341 340 342 346 342 338 338 339 339 337 338 337 336 338 339 339 338 337 336 337 336 336 335 335 335 334 333 333 332 332
345 346 345 345 347 348 348 348 349 351 350 345 346 344 343 343 343 342 342 344 346 345 347 347 349 348 343 344 344 343 342 342 345 346 345 343 342 342 343 343 343 343 342 340 338 339 340 337 339 339 343 342 342 344 348 346 347 341 343 342 341 341 340 340 338 337 338 340 340 339 340 339 339 338 336 336 336 335 335 334 334 333 332 332 331
346 344 344 346 347 350 349 348 348 350 350 348 346 344 344 344 344 349 348 347 345 346 345 347 346 345 346 342 339 342 342 340 340 344 344 341 340 340 339 340 339 339 342 339 338 336 336 336 336 338 339 340 341 344 344 340 341 344 340 341 339 340 339 338 340 338 340 340 341 341 341 340 340 339 337 337 336 335 335 334 334 333 332 331 331
344 342 344 346 348 351 346 348 347 348 349 348 346 347 348 345 346 348 345 346 347 347 345 343 343 345 344 344 341 342 343 343 343 347 345 342 341 338 339 340 339 338 341 339 339 336 337 336 336 338 338 339 341 343 341 340 342 336 338 338 339 339 340 339 340 339 339 339 342 341 342 341 339 338 337 337 336 336 334 334 334 333 333 332 332
343 342 344 345 345 346 349 348 348 346 349 350 349 345 346 346 348 347 344 350 347 346 346 343 346 343 342 342 345 344 342 343 343 341 345 344 341 340 340 338 337 336 339 338 337 336 336 335 337 337 336 337 338 341 343 337 338 339 336 338 339 340 340 339 341 340 339 339 341 342 341 341 339 338 338 338 337 336 335 335 334 333 334 332 332
342 343 345 345 345 347 346 344 346 346 345 349 347 348 346 342 347 344 345 344 345 343 345 345 342 341 344 343 344 341 341 340 339 341 344 340 341 342 340 339 341 338 339 337 336 336 335 336 338 338 336 335 339 338 338 339 338 337 336 336 338 339 340 341 342 341 340 339 341 341 341 341 340 340 339 338 338 337 336 335 335 334 334 334 334
344 345 346 346 343 345 343 345 348 349 350 349 345 344 345 341 343 345 345 344 344 343 343 342 342 342 341 340 342 343 338 339 341 339 341 342 340 341 340 339 338 338 340 340 338 337 336 338 338 335 332 334 337 338 339 338 334 336 334 336 336 339 341 339 340 341 339 339 340 340 341 341 341 341 337 338 338 337 337 336 335 334 333 334 334
345 345 343 337 338 340 339 345 347 349 348 345 345 347 349 340 340 341 344 340 339 340 342 342 342 342 340 340 342 344 339 340 340 340 341 338 339 339 338 339 338 339 340 339 340 339 337 337 336 333 335 335 335 340 337 342 335 333 336 333 336 340 339 340 338 339 338 340 339 339 340 341 341 341 341 339 338 338 338 336 336 335 335 336 336
345 343 340 339 338 340 339 339 344 347 345 343 344 349 349 341 339 343 344 345 340 341 339 340 340 342 340 342 343 343 343 344 346 339 339 338 337 338 339 339 340 340 340 340 339 340 338 337 335 337 338 338 337 339 339 337 336 337 333 333 335 337 337 339 338 340 340 340 339 338 339 338 341 341 340 339 338 338 338 337 337 337 337 336 337
345 345 337 335 339 337 339 339 342 343 341 341 344 347 348 340 343 345 344 345 345 345 339 338 342 343 341 341 343 342 344 345 346 344 338 335 337 338 338 342 341 341 341 340 341 341 343 341 341 341 339 338 337 338 338 335 336 335 335 336 336 335 337 336 338 340 339 340 340 338 338 338 338 340 340 339 339 338 337 337 338 338 337 338 337
344 347 338 337 338 340 338 341 341 339 340 338 341 344 344 340 344 343 344 345 345 343 343 341 340 341 342 342 340 340 346 347 344 343 341 339 340 342 342 340 341 342 342 343 339 342 340 340 341 340 337 337 336 339 334 336 332 334 339 335 336 338 338 335 337 337 338 338 338 340 342 338 339 336 338 339 339 338 337 337 337 338 338 338 337
344 345 338 335 338 341 340 343 343 341 338 337 339 342 339 342 343 344 345 345 344 342 344 338 342 341 342 340 342 341 340 342 341 343 343 340 340 339 338 339 342 342 341 344 344 341 341 339 337 336 338 336 335 338 337 338 336 336 337 339 338 338 338 337 336 337 338 340 339 339 340 338 344 338 337 338 339 338 338 337 338 338 338 337 337
343 344 338 335 337 340 343 344 344 340 340 342 343 343 344 344 344 342 344 342 340 339 341 339 337 341 342 339 341 339 342 341 341 342 342 341 340 338 339 340 341 342 343 343 341 338 338 338 338 339 336 336 335 336 338 341 337 336 336 338 338 338 337 337 336 337 337 339 339 338 338 339 339 337 338 339 337 338 337 337 337 337 337 337 338
344 344 339 337 340 342 344 344 343 340 342 344 343 343 344 343 341 341 340 342 341 343 341 343 344 342 342 341 342 342 339 342 342 342 343 342 342 342 340 341 341 340 338 343 339 338 339 338 341 338 338 335 334 335 339 336 336 336 337 336 338 339 336 336 337 338 338 336 337 336 338 338 338 339 340 341 341 338 337 336 335 335 335 335 337
344 345 341 338 339 341 343 344 343 342 342 342 343 343 343 340 338 338 341 341 341 340 339 342 341 342 341 341 341 343 340 341 340 341 342 341 341 341 340 341 341 342 341 341 339 342 341 341 336 338 338 335 334 335 334 336 334 335 335 336 338 340 339 340 337 336 339 336 335 337 338 339 339 340 339 339 341 340 337 336 334 333 333 333 334
345 345 341 339 340 341 342 343 342 343 341 340 340 340 341 344 341 339 341 342 340 338 342 342 343 345 342 339 340 343 340 340 341 341 341 340 339 340 340 341 341 337 340 340 339 340 340 341 336 336 336 337 336 337 335 335 333 332 334 335 334 335 337 337 336 338 337 334 335 334 336 338 338 337 339 339 339 340 339 338 337 334 332 332 334
345 346 339 339 339 340 340 340 341 341 342 340 338 337 338 337 337 338 338 339 339 340 342 344 344 342 339 339 338 339 340 340 338 341 342 343 342 341 341 340 344 340 339 337 341 338 339 340 335 335 333 335 339 337 337 335 332 331 329 333 334 334 334 335 334 334 335 337 335 337 336 334 335 337 335 337 337 338 339 338 337 338 332 334 334
344 344 343 339 340 338 339 338 340 341 340 338 337 337 335 335 336 334 336 337 337 338 340 340 339 340 339 340 342 341 339 341 338 341 341 342 340 340 338 338 340 338 339 339 339 338 340 340 342 336 333 334 333 336 336 334 329 328 332 333 333 335 335 335 333 332 331 336 338 336 334 335 334 336 335 337 335 336 336 335 335 335 333 336 335
341 342 341 341 341 340 340 339 340 340 339 340 337 339 340 338 335 334 336 337 336 336 336 337 337 338 338 338 340 341 340 339 341 342 342 342 340 341 336 335 338 340 340 341 341 339 340 338 337 336 335 336 335 340 337 331 329 326 324 327 331 334 334 334 336 332 334 333 334 335 337 335 335 335 335 335 334 334 334 334 334 335 334 335 336
341 342 342 342 341 341 341 340 339 339 340 340 339 338 339 339 337 336 335 339 339 337 338 337 338 339 338 338 338 339 337 339 341 340 341 340 338 336 334 334 338 339 340 339 338 340 339 339 338 334 333 335 336 338 337 336 327 329 328 325 321 321 326 332 333 333 331 334 333 333 333 334 333 334 334 333 331 331 331 332 334 335 337 336 335
340 341 341 341 341 339 341 341 341 341 339 339 339 341 340 341 340 340 339 339 337 335 336 337 338 336 336 336 336 340 340 341 339 339 339 336 334 334 335 337 337 340 339 338 338 336 338 337 337 335 333 329 334 333 336 332 333 327 321 322 321 322 317 321 326 328 331 331 331 331 332 332 332 333 333 329 327 329 330 331 332 333 335 335 334
339 340 340 340 339 339 340 341 340 341 339 338 339 338 339 339 338 338 339 337 337 334 331 331 332 334 334 333 336 338 339 339 336 337 338 336 336 338 336 338 338 340 338 337 337 336 337 340 337 336 335 330 329 331 331 333 333 335 327 322 321 318 318 321 323 324 330 327 328 330 332 330 330 330 327 324 325 327 328 330 332 332 333 334 335
339 341 341 340 340 340 341 340 341 339 338 337 339 338 337 337 334 332 331 330 329 329 327 330 329 329 334 335 337 337 337 337 335 336 335 336 338 340 340 338 340 339 340 339 338 336 336 338 338 338 335 331 332 331 331 333 335 334 334 334 328 320 319 322 322 317 328 329 328 328 330 331 329 327 324 323 323 325 327 329 332 331 331 331 331
339 341 341 341 341 340 340 341 340 339 338 337 338 338 337 336 336 335 334 332 330 332 334 339 335 334 335 338 337 338 337 338 338 339 338 338 339 338 339 338 337 338 338 339 340 336 336 334 336 336 336 334 334 329 330 328 332 335 335 335 334 333 328 322 319 321 317 323 326 326 327 327 327 323 321 322 324 325 327 328 329 328 329 330 330
340 340 341 341 341 340 340 340 340 338 338 339 337 338 336 337 337 336 334 333 331 332 336 337 338 337 338 337 339 340 340 341 341 339 339 339 339 339 339 339 337 337 337 337 338 337 336 335 337 339 339 337 335 332 330 330 328 328 334 334 333 333 330 331 326 322 320 318 319 325 327 327 325 323 322 323 324 324 324 324 323 325 327 327 328
339 339 340 340 341 340 340 340 339 338 339 339 338 338 337 336 337 334 334 335 334 334 338 338 337 338 339 340 341 340 342 342 340 341 341 339 339 339 339 339 339 337 337 336 337 337 339 335 334 336 336 335 336 335 331 331 331 329 330 329 329 329 330 333 333 327 323 319 318 320 321 325 325 322 323 323 323 323 322 322 321 322 326 327 328
338 340 340 340 341 340 339 338 338 338 339 339 338 339 338 338 337 336 334 332 333 336 337 337 339 339 341 340 340 338 338 338 339 340 342 340 340 340 339 338 339 338 337 336 336 336 337 337 336 337 338 336 336 335 332 331 334 334 333 328 326 326 324 327 327 327 325 324 318 317 319 318 316 318 322 320 321 320 319 320 320 319 321 322 322
338 339 339 339 340 339 338 336 337 337 338 338 339 338 338 337 336 335 333 331 334 335 334 334 335 338 336 337 336 336 337 336 338 338 338 338 339 341 340 339 339 340 338 337 337 336 337 338 335 337 335 335 334 332 330 335 335 333 331 329 327 328 325 321 324 325 322 322 318 318 319 319 316 315 318 319 319 318 319 320 319 318 319 320 319
Wind_Speed
12 15 15 15 12 12 13 12 11 14 15 16 16 17 18 19 19 18 17 16 16 15 13 12 13 14 14 13 12 12 12 12 12 12 12 12 12 13 12 12 12 12 12 13 13 14 14 14 14 13 13 13 14 13 13 16 18 16 17 15 14 14 13 14 15 17 18 18 18 19 20 20 20 19 17 18 15 16 16 15 11 12 12 13 15
14 14 13 14 13 13 13 12 12 13 16 17 17 17 18 19 19 18 17 17 16 15 13 12 13 14 13 13 12 11 11 12 12 11 12 12 12 12 12 12 12 12 13 14 14 15 14 14 14 13 13 13 13 12 13 15 16 16 15 15 14 13 13 13 14 15 16 16 17 18 19 21 20 16 18 18 18 19 14 13 13 11 12 16 16
14 14 12 14 14 13 14 13 13 14 17 17 17 18 19 19 19 18 17 17 15 14 13 12 12 13 13 12 11 10 10 10 10 10 11 11 11 11 12 12 12 13 13 14 14 14 14 14 14 13 13 13 12 12 11 13 13 15 14 13 13 12 11 11 11 13 16 18 17 18 18 21 20 18 18 17 19 18 16 16 15 15 13 17 15
15 13 12 14 13 12 13 14 14 16 17 17 18 18 18 18 18 17 17 16 15 14 14 13 13 12 12 12 11 10 10 11 10 10 11 11 11 12 12 12 12 14 14 13 13 12 13 13 14 13 13 12 12 12 12 12 13 13 13 12 10 9 7 6 5 6 11 18 16 13 9 14 14 17 16 16 15 15 16 15 16 17 18 16 18
14 14 13 12 13 13 13 14 15 16 17 17 18 18 18 18 18 17 16 16 15 14 15 14 13 12 12 11 11 11 11 11 10 9 9 11 11 12 13 12 13 14 13 13 13 13 13 13 13 13 12 12 12 12 12 12 12 12 11 10 8 7 6 5 4 1 3 13 13 9 10 13 13 16 14 16 17 16 16 15 15 14 15 18 18
13 13 13 12 13 14 13 14 15 16 17 17 18 18 18 18 18 17 16 15 14 15 14 14 13 13 12 12 11 11 11 11 10 8 7 9 11 12 13 12 13 14 13 13 13 13 12 12 12 12 12 12 11 12 12 12 12 11 11 10 7 8 8 6 5 3 6 7 12 2 10 12 11 10 16 15 15 15 15 15 16 14 13 15 16
16 13 13 13 12 14 12 14 16 16 17 17 17 17 17 17 17 16 15 15 15 16 15 14 14 14 13 13 12 12 12 11 11 9 7 6 11 12 13 12 13 13 13 12 12 12 12 11 11 12 12 12 11 11 11 12 11 11 11 9 7 8 8 6 5 7 7 8 9 5 9 11 11 9 15 15 13 12 13 15 16 15 15 14 16
13 12 12 13 11 14 13 14 15 15 15 16 17 16 16 16 16 15 15 15 16 16 15 14 14 14 14 13 13 12 12 12 11 11 8 8 12 11 12 13 13 13 12 12 12 11 10 10 10 11 12 12 12 11 11 10 11 11 10 10 6 7 3 6 9 11 13 6 8 8 8 8 10 9 13 15 13 10 12 15 15 16 16 17 14
14 14 13 12 13 17 12 14 15 15 14 15 15 16 16 16 15 15 15 15 15 15 14 14 14 14 14 14 14 13 12 12 12 11 9 10 11 11 10 12 12 12 11 10 10 9 9 9 9 9 9 11 11 11 10 9 10 9 10 9 7 3 4 3 8 9 4 7 11 9 8 11 10 10 10 12 14 15 14 12 14 16 17 15 14
14 14 13 11 14 15 14 13 14 15 15 15 14 14 15 15 15 16 16 15 16 15 15 15 14 14 14 14 14 13 13 13 12 11 10 10 10 9 9 10 11 10 11 10 10 9 8 8 8 8 9 9 10 11 10 9 8 8 7 6 5 5 7 5 7 9 7 7 10 14 15 14 12 10 12 13 15 17 16 18 15 15 13 13 16
13 10 12 12 18 14 14 14 15 15 15 15 14 14 14 15 15 16 16 16 16 16 15 14 14 14 13 14 14 13 13 12 11 11 12 10 7 8 12 11 11 11 11 11 10 9 8 8 8 8 8 9 8 8 9 8 8 6 5 3 2 2 5 9 12 2 8 10 9 9 13 14 11 10 13 14 15 16 16 15 15 14 14 14 16
13 11 11 13 18 14 13 14 14 15 15 16 15 15 15 15 15 15 15 16 14 15 14 13 14 14 14 14 14 13 13 12 10 11 12 10 8 9 13 13 11 10 11 9 9 9 8 8 8 8 7 7 6 6 7 9 7 6 2 0 2 7 6 13 11 7 9 11 12 11 12 12 11 11 15 16 15 14 15 15 14 15 16 15 14
13 12 12 14 15 13 13 13 14 15 16 16 17 17 15 15 15 15 15 13 13 12 13 13 13 12 12 13 14 14 14 13 11 12 11 10 10 11 13 11 11 10 11 10 9 10 8 8 8 7 5 4 5 5 7 9 7 5 2 2 5 10 10 11 6 8 9 10 9 10 11 10 10 11 12 13 14 14 14 13 13 14 15 14 13
13 13 13 13 12 16 12 12 14 14 15 16 16 16 16 14 14 13 12 12 12 11 11 11 12 12 11 11 12 13 12 12 12 12 12 13 11 10 12 11 11 11 11 10 10 10 8 8 6 5 4 5 5 6 8 9 7 4 2 5 6 9 12 15 8 8 9 10 11 11 11 9 10 12 14 14 14 14 14 14 14 14 14 14 13
13 15 13 12 13 13 14 11 13 13 14 14 14 14 13 13 12 12 12 11 12 12 12 12 13 13 12 12 13 12 10 11 12 12 13 13 12 11 11 12 11 11 10 10 10 9 7 7 6 5 5 5 7 8 9 8 7 5 0 4 9 9 14 8 6 7 9 10 10 12 11 10 14 13 13 12 14 13 12 13 14 14 14 13 13
14 15 14 13 13 13 13 12 11 12 12 13 13 13 12 12 13 12 11 11 11 11 12 12 13 13 13 12 10 11 11 10 11 13 13 13 13 12 12 11 11 10 10 10 9 8 8 7 5 5 6 7 9 10 9 8 7 5 3 5 7 11 13 12 5 6 7 8 9 10 10 9 10 13 13 13 12 12 13 13 13 13 12 12 13
13 16 14 14 14 13 12 12 12 11 11 12 12 12 12 12 12 11 12 12 11 11 12 12 12 12 10 10 10 12 12 10 10 12 13 13 13 12 11 11 10 9 10 10 9 8 7 6 5 5 7 8 9 10 9 8 7 6 3 5 6 11 12 12 8 7 7 10 10 9 9 9 11 12 12 12 12 12 13 13 13 12 12 12 12
14 14 14 15 14 13 12 12 13 13 13 12 11 11 12 12 12 11 11 11 11 12 11 11 10 11 11 10 10 12 14 13 11 11 12 12 12 12 12 11 10 9 9 10 10 8 7 6 6 6 7 9 9 9 9 9 7 5 1 6 7 8 8 11 8 7 9 10 10 10 9 10 12 13 12 13 13 13 12 12 12 12 13 13 12
13 14 14 14 14 13 13 12 13 12 13 10 11 11 11 13 12 11 10 11 11 11 12 11 11 11 11 9 10 15 16 14 13 12 11 12 11 11 11 12 11 10 10 10 9 8 7 6 7 7 7 9 9 9 9 10 8 5 5 5 8 8 10 9 8 8 9 8 8 9 8 9 13 11 11 12 12 13 12 11 10 11 11 10 11
13 13 14 13 14 13 12 12 12 13 12 11 11 12 12 12 12 12 12 12 12 12 12 12 12 13 12 12 11 14 15 14 15 12 13 11 11 9 11 12 12 11 10 10 9 8 7 6 6 7 8 9 10 9 9 9 8 7 6 7 8 9 7 5 10 10 8 8 9 8 10 11 11 11 11 12 13 13 12 12 11 11 11 11 11
10 12 13 13 13 14 14 11 12 13 12 12 11 12 12 12 12 11 12 13 13 13 13 13 13 14 14 14 12 11 11 11 13 11 14 11 10 11 12 13 12 12 11 9 9 8 5 5 7 7 8 10 9 10 9 8 7 7 7 7 8 8 4 5 8 8 8 8 9 8 10 10 10 10 10 10 10 10 11 10 11 11 10 11 10
11 12 12 13 13 13 14 13 12 13 12 10 9 9 11 12 13 12 12 12 12 12 12 11 11 11 12 11 9 6 7 6 6 10 9 12 13 13 13 13 13 13 11 9 8 7 4 3 5 8 10 10 13 7 7 7 8 7 7 8 7 2 4 7 5 8 8 8 8 8 10 9 10 10 10 10 10 10 10 10 10 10 9 9 10
11 11 11 13 11 12 12 13 13 12 12 11 9 9 12 10 11 11 9 12 11 12 10 10 10 11 10 9 4 2 6 4 2 4 9 11 13 14 13 13 13 12 12 11 8 7 6 5 5 7 8 12 10 6 6 5 5 8 8 7 5 5 4 5 6 6 8 8 7 10 10 9 9 9 10 10 10 10 10 10 10 9 9 9 10
11 10 11 11 11 11 12 12 13 12 10 9 9 10 10 10 9 10 9 9 10 9 9 8 9 10 9 8 4 3 4 4 7 9 12 10 11 14 14 13 13 12 12 8 9 7 6 4 4 4 6 8 6 5 6 5 5 5 5 4 5 5 5 6 6 7 8 9 8 9 9 9 9 9 9 9 9 9 9 9 9 9 9 9 10
9 9 9 10 11 10 11 11 11 11 11 9 9 9 10 8 9 8 9 8 8 7 5 6 3 4 6 6 7 5 6 4 5 6 7 8 9 9 9 8 8 8 11 7 7 7 7 6 5 7 6 6 6 4 2 1 2 4 4 4 5 5 4 5 6 7 7 7 7 7 9 7 8 8 9 9 9 9 9 9 9 9 8 9 9
9 8 10 11 9 8 11 10 10 11 8 7 8 8 9 8 7 6 3 7 8 7 5 1 3 3 6 7 4 2 2 5 3 4 5 7 9 8 8 7 7 7 8 5 7 7 7 6 7 7 6 6 5 5 2 2 4 9 4 5 5 5 6 6 6 7 8 8 8 9 7 6 7 9 9 9 9 9 9 8 8 9 8 8 8
8 9 9 9 9 10 9 10 10 9 9 9 8 5 5 5 2 5 5 6 6 6 6 2 4 3 7 5 7 4 5 6 5 3 6 4 5 8 6 6 7 6 6 6 7 7 7 7 7 7 6 7 9 6 6 6 8 5 6 6 5 5 6 7 6 7 7 8 8 10 7 5 8 9 9 9 9 9 8 8 8 8 8 8 8
7 9 11 9 9 10 8 7 11 11 7 7 6 7 4 7 2 6 2 1 5 3 4 4 5 5 2 9 6 5 5 4 3 2 5 2 5 6 6 7 7 6 5 5 6 7 6 6 7 6 7 7 6 12 3 8 12 8 6 6 4 5 5 7 6 8 7 7 8 9 8 6 7 8 8 10 10 9 8 8 8 8 8 8 10
12 10 9 10 11 9 10 10 9 11 10 8 6 3 6 4 4 6 4 5 4 3 3 4 5 3 3 7 5 4 4 2 3 5 2 8 7 5 5 5 5 5 6 6 6 6 5 6 6 5 5 5 5 6 7 11 5 4 5 6 5 5 5 6 6 8 8 7 7 9 11 9 8 8 8 8 8 8 8 8 9 8 8 9 9
8 8 6 7 5 5 7 10 10 10 7 4 2 5 7 6 3 4 7 6 5 4 6 5 5 7 7 7 6 5 4 3 4 5 7 3 5 5 4 4 5 5 5 4 4 5 6 5 5 6 7 8 6 6 6 2 4 5 4 4 6 5 5 6 7 9 7 7 8 9 11 9 5 3 6 8 9 8 8 9 9 9 9 8 8
8 6 5 9 3 4 4 6 9 6 7 6 1 3 5 8 2 4 6 8 6 5 4 5 5 6 7 9 8 7 8 7 8 9 5 7 6 5 5 5 4 4 3 3 3 4 4 4 5 6 7 7 6 5 1 1 2 6 3 6 5 5 5 5 7 7 9 7 8 8 10 8 10 11 10 9 8 8 8 9 9 8 7 7 7
8 7 8 3 1 2 5 7 7 5 4 5 1 2 4 8 4 4 5 7 10 9 6 5 5 4 8 9 7 5 5 3 4 5 5 5 5 5 5 4 4 4 4 5 5 5 5 4 8 6 7 3 6 2 6 3 3 6 2 1 6 5 5 5 8 8 8 6 7 8 7 8 11 11 10 7 7 8 8 8 7 7 6 5 5
7 8 11 8 9 0 5 8 6 2 4 4 3 3 3 5 4 4 5 5 5 6 9 6 5 4 6 9 5 4 3 3 1 3 5 4 5 5 5 5 5 2 2 4 5 5 5 7 6 4 5 6 8 7 5 0 3 2 3 5 4 5 5 6 7 8 7 6 5 6 7 8 9 11 11 9 8 7 6 5 5 5 4 4 4
7 8 12 5 3 6 5 5 5 5 8 1 0 5 3 4 4 5 5 5 5 5 5 7 5 3 4 4 4 5 5 4 3 3 3 4 5 5 5 5 4 4 4 4 5 5 5 5 5 5 5 4 5 8 3 2 7 1 8 5 5 4 4 5 8 7 8 6 5 5 5 6 6 7 8 9 8 7 6 5 4 5 3 2 4
6 6 13 6 4 6 5 5 8 5 8 8 8 5 6 5 5 6 5 5 6 5 5 7 4 5 5 6 6 6 8 7 7 4 3 4 4 4 4 3 4 5 5 2 3 5 4 5 4 6 5 4 3 6 3 4 5 5 4 1 4 4 3 4 6 7 7 6 6 4 4 5 3 5 4 5 8 8 7 6 6 5 5 4 5
8 6 13 8 9 7 6 6 8 11 9 9 4 4 5 5 5 4 4 5 5 6 6 8 7 4 5 4 5 7 8 9 8 6 5 4 4 5 4 4 5 5 4 5 8 6 6 5 6 4 3 3 5 5 1 3 5 5 5 3 4 3 3 4 6 8 4 5 5 5 4 4 4 6 5 4 4 6 8 8 8 8 8 8 7
7 6 12 10 9 10 9 10 9 8 9 8 7 5 5 5 4 4 4 4 4 4 5 5 5 7 4 6 6 6 5 6 7 7 5 5 3 4 5 6 5 6 6 7 7 5 5 5 4 6 3 5 3 4 3 4 4 4 2 4 4 3 3 3 7 6 6 6 4 4 4 4 4 6 4 3 4 5 7 9 9 9 8 9 8
8 7 11 9 9 9 9 7 8 7 7 8 7 7 8 6 3 3 5 5 5 4 5 5 6 7 5 5 2 4 4 7 7 6 5 6 6 6 6 5 7 0 6 5 5 4 2 5 4 3 1 2 2 3 4 3 5 4 4 5 4 6 5 6 5 3 3 5 4 2 2 2 3 4 4 4 4 4 5 6 9 9 8 6 7
8 8 11 10 8 9 6 7 8 10 11 8 6 6 7 5 7 7 6 4 3 2 4 5 6 5 6 5 4 4 4 6 5 5 6 6 6 6 5 6 5 5 8 6 5 4 5 7 4 4 1 3 3 4 5 5 3 6 4 8 6 3 5 4 4 3 2 4 6 6 4 1 2 4 5 4 4 3 4 4 3 3 5 6 7
7 7 10 10 10 8 7 7 8 8 9 10 4 5 5 7 7 6 6 5 4 4 4 3 5 6 5 5 6 4 6 4 2 4 4 4 1 0 2 4 4 5 8 6 2 4 6 5 11 8 5 3 2 3 4 5 6 9 9 5 5 4 4 3 2 1 2 4 5 5 5 9 8 6 8 5 6 5 4 6 4 3 6 6 6
7 7 8 11 13 10 7 8 8 8 8 9 9 7 8 8 7 7 7 6 5 4 4 3 4 5 7 5 4 5 5 6 9 6 6 3 3 1 1 4 5 9 5 5 5 5 5 5 3 7 10 7 6 6 7 6 6 6 6 6 6 4 4 4 4 5 6 3 1 4 5 6 5 5 5 4 5 4 4 3 6 4 7 6 6
8 8 8 10 12 12 10 8 8 9 8 8 9 8 6 6 7 6 5 5 5 5 4 3 3 5 6 6 4 2 3 5 5 6 5 4 3 2 2 2 9 5 4 4 3 5 5 5 6 6 6 7 5 5 5 8 3 7 8 6 5 4 4 1 2 3 4 4 5 4 4 4 5 5 6 6 6 5 4 4 4 3 7 6 6
9 10 10 11 13 12 11 10 9 9 8 7 8 8 6 5 4 4 4 3 2 4 4 4 3 3 5 4 4 6 6 5 6 6 5 5 3 3 5 6 9 6 2 4 6 5 5 5 6 5 6 3 5 3 5 3 4 7 8 8 7 6 4 2 1 2 3 6 4 5 4 6 6 4 5 4 4 5 5 5 5 4 4 5 7
8 9 11 11 10 10 11 10 9 9 8 7 7 8 8 6 4 3 5 5 4 5 6 4 4 5 3 4 4 4 7 7 6 6 6 5 4 5 6 8 9 5 5 5 5 6 3 5 4 4 8 0 4 6 4 3 2 9 7 4 7 6 7 5 4 5 10 8 5 6 4 6 7 5 4 5 5 5 5 6 5 5 4 5 7
10 10 10 10 8 11 12 11 8 8 8 8 8 9 9 8 6 4 3 3 2 5 6 5 4 6 7 8 7 6 6 3 2 3 3 3 8 10 10 8 7 4 4 5 4 5 5 5 5 3 7 5 5 4 6 8 9 2 2 6 5 5 4 7 7 5 3 4 4 5 4 5 6 5 4 6 6 6 6 6 5 6 5 5 5
12 10 11 10 10 10 10 10 6 8 9 10 9 8 7 6 7 8 7 6 5 8 10 9 8 9 10 9 11 6 6 8 11 11 8 6 8 7 7 6 5 3 3 2 3 4 5 3 4 4 5 7 5 5 6 2 6 2 1 4 2 1 7 8 7 5 3 4 5 6 5 5 4 4 5 6 7 7 6 6 5 5 5 5 6
11 11 10 10 10 10 11 10 8 7 9 9 11 8 8 7 8 7 7 5 5 5 5 6 10 10 9 8 9 10 10 8 7 7 11 10 6 7 5 6 6 5 4 4 3 5 5 5 3 5 5 6 6 8 7 6 6 3 1 4 5 2 4 8 6 7 7 3 4 5 4 5 4 5 5 6 6 5 5 6 6 6 5 6 7
11 11 10 10 10 11 11 9 7 7 8 9 11 9 10 9 8 7 6 5 4 3 6 8 7 5 8 8 7 7 8 9 8 7 7 8 9 7 7 5 5 6 5 5 3 3 3 1 3 1 5 5 4 6 6 7 7 5 2 1 2 3 4 2 4 7 7 8 5 4 5 5 5 5 5 6 7 6 5 5 7 7 6 7 7
10 11 11 10 10 10 11 10 9 9 9 12 11 11 9 9 9 8 6 2 2 6 7 6 6 7 7 6 6 6 7 6 7 7 7 7 6 6 6 6 5 5 5 6 5 5 4 7 6 3 5 5 6 4 5 5 4 5 4 1 3 3 2 1 2 1 4 8 7 7 7 5 4 4 3 4 6 5 3 3 6 7 6 6 7
9 11 11 11 12 11 10 11 11 9 10 11 11 12 11 8 8 7 7 7 7 7 7 7 6 6 6 7 6 6 6 6 6 6 6 6 6 6 7 6 6 6 5 6 5 4 3 4 4 6 4 6 5 4 4 5 6 6 4 2 2 4 1 2 1 3 3 4 6 9 7 8 7 5 4 4 6 5 5 5 5 7 6 6 7
9 11 11 12 12 12 12 12 11 10 10 10 11 12 11 11 8 7 6 6 8 9 7 7 7 6 6 6 5 5 5 5 5 5 6 5 5 6 6 6 6 5 5 5 4 5 4 4 2 3 5 4 4 7 9 5 5 5 5 4 3 3 4 2 3 3 2 2 6 7 8 8 7 7 6 5 6 7 6 4 5 5 5 6 7
Wind_Direction
130 126 120 119 125 130 124 118 116 139 139 135 131 126 130 132 131 130 131 130 133 134 133 130 128 123 122 122 122 123 123 120 119 118 117 119 117 117 117 112 113 113 110 113 113 104 97 95 95 92 90 91 87 81 80 81 68 72 74 76 80 82 79 82 84 85 82 84 80 72 69 69 70 68 66 67 66 68 48 32 58 72 70 69 70
137 130 123 124 126 129 128 120 114 123 139 136 132 127 131 133 131 131 131 133 135 136 135 132 127 125 124 124 127 128 124 123 123 124 122 120 118 119 118 116 117 118 120 120 114 105 104 102 97 95 91 89 88 84 84 65 75 74 73 79 87 85 84 84 83 91 97 92 86 81 76 73 73 73 71 68 68 70 70 71 55 60 68 64 63
133 130 128 126 125 125 125 122 122 123 135 135 133 129 132 133 130 131 133 135 137 137 132 132 128 125 124 126 126 126 120 119 120 122 127 123 124 120 119 123 123 125 123 116 114 111 106 99 96 95 94 91 91 94 88 79 81 75 75 75 83 88 92 90 95 100 101 101 94 92 90 81 70 66 68 63 63 64 67 61 66 65 63 63 65
135 137 129 125 124 123 124 126 128 132 134 135 133 132 132 132 131 133 134 136 138 135 134 136 133 129 126 125 129 126 123 121 119 123 132 129 125 122 123 126 134 128 123 120 118 115 105 102 99 94 93 94 92 91 89 84 85 73 71 72 78 91 103 111 104 112 128 124 122 111 104 86 81 74 69 68 71 68 66 62 63 67 67 61 61
137 139 132 139 134 129 132 131 133 135 133 134 134 134 134 132 134 135 136 136 134 134 135 135 135 135 131 130 131 129 128 123 125 129 130 130 130 130 125 137 134 129 127 127 119 114 109 105 100 99 96 95 92 90 87 85 84 74 72 68 64 67 59 38 29 40 198 162 151 120 90 99 88 83 77 70 61 57 55 58 62 64 69 66 56
135 138 141 143 139 139 133 135 136 134 134 134 134 135 135 134 135 136 136 136 133 133 133 135 136 137 134 134 130 134 131 133 133 137 135 132 133 129 134 140 130 132 133 129 121 118 116 108 104 103 102 97 93 90 91 91 88 80 72 69 54 44 35 10 336 348 295 230 263 108 106 83 77 70 66 62 62 59 54 55 53 51 56 61 67
139 142 144 141 142 142 137 136 135 133 132 133 134 134 134 135 136 136 135 134 134 138 138 136 138 139 138 136 136 138 140 140 142 146 145 131 132 133 143 140 134 135 137 131 125 119 115 113 106 102 98 97 95 89 87 88 87 81 78 74 56 41 21 353 300 279 251 255 216 210 76 77 81 68 60 54 54 61 68 65 53 48 51 61 63
138 146 143 140 146 142 138 136 133 128 128 131 133 135 134 134 135 135 134 134 137 140 137 139 140 143 142 141 143 147 151 152 147 148 147 123 129 141 146 142 139 141 140 135 129 125 120 117 110 102 94 89 89 92 84 84 89 89 86 86 64 50 26 304 330 328 316 95 76 78 91 92 85 88 66 66 62 62 75 71 66 55 50 44 50
146 150 144 139 139 142 137 132 128 126 122 128 131 131 133 134 134 134 135 136 135 137 139 141 143 144 145 147 146 150 153 147 142 144 139 137 142 150 157 139 144 143 141 137 134 130 127 120 117 108 94 85 85 90 90 83 85 89 89 94 80 27 321 328 293 312 316 78 67 42 87 93 86 81 73 68 67 64 61 78 79 68 58 53 54
149 147 142 138 143 137 135 130 128 125 126 127 125 128 129 130 134 137 140 140 141 142 143 145 147 148 149 147 147 148 146 143 142 145 148 148 163 159 136 135 142 137 135 135 130 129 126 120 114 110 95 95 90 86 92 93 86 87 99 121 151 177 238 268 303 277 63 62 74 63 46 56 70 68 80 76 71 64 67 65 61 57 62 71 67
135 141 142 137 139 133 133 132 131 132 132 129 129 127 128 131 135 141 140 144 148 147 148 149 151 151 149 148 149 148 146 148 147 149 151 162 163 137 133 140 143 146 135 132 133 128 123 118 116 107 96 85 85 87 94 98 95 89 97 122 284 276 292 282 291 130 102 92 90 81 76 77 72 74 77 75 73 75 73 71 68 69 72 68 66
131 133 135 128 133 132 133 136 135 134 134 134 131 133 132 136 139 141 144 148 151 153 151 153 154 153 154 154 151 148 148 144 141 158 159 157 153 142 142 149 141 125 127 124 123 121 115 107 95 93 89 83 87 93 97 98 101 100 96 320 275 304 305 280 280 77 71 73 77 80 81 78 83 80 80 81 80 76 73 71 70 71 65 64 65
140 135 131 132 141 132 138 139 139 137 139 138 140 139 138 139 142 146 148 150 153 154 155 156 154 154 156 157 152 150 148 145 133 130 136 102 101 131 138 122 118 124 123 121 118 107 102 93 77 73 75 81 94 115 110 105 105 108 120 268 251 245 266 279 268 85 94 98 95 85 84 78 79 87 83 82 80 75 73 79 81 71 69 66 69
142 130 136 137 137 143 139 144 143 142 142 141 140 142 141 141 146 146 146 149 149 149 151 148 151 150 155 156 155 154 151 143 129 120 110 94 88 123 132 118 124 123 123 128 115 101 94 85 83 83 82 84 92 113 125 109 107 119 182 244 285 307 310 297 77 83 83 79 72 77 76 76 82 84 82 78 78 73 72 74 74 73 70 71 71
133 128 138 134 138 150 147 147 147 145 142 142 140 140 139 142 143 145 145 147 148 149 150 150 151 157 162 163 160 156 148 141 135 126 114 104 99 109 125 126 126 123 123 117 111 100 98 92 79 75 83 93 112 118 116 112 110 106 215 324 315 315 310 310 104 100 93 86 92 92 89 86 71 78 85 84 77 80 85 80 75 71 70 71 71
139 137 143 136 145 145 156 152 150 146 143 140 140 138 139 141 142 143 147 149 147 150 152 149 149 161 167 162 153 152 142 140 138 131 124 120 115 117 120 125 121 123 116 115 112 105 91 84 83 92 89 102 109 116 116 115 106 95 68 326 323 299 297 299 90 83 91 94 89 85 89 87 87 82 80 80 84 86 84 81 77 77 78 76 70
148 151 144 144 145 151 153 158 153 145 144 142 141 139 138 139 140 142 146 148 146 144 147 155 150 151 152 145 139 142 144 145 141 133 131 128 128 126 125 123 124 124 122 119 110 103 100 105 102 107 113 108 113 118 117 114 106 90 65 308 286 285 288 306 82 71 77 85 88 86 90 91 90 91 91 92 94 96 91 84 80 81 78 78 77
154 155 150 149 150 154 153 158 155 159 154 148 138 138 140 143 144 145 146 144 144 142 139 142 141 144 148 143 149 146 152 150 146 136 130 131 131 133 131 128 129 124 129 120 116 115 113 107 111 118 124 120 118 123 123 116 107 109 158 254 268 287 308 311 92 86 82 82 80 81 82 95 97 93 91 92 91 86 83 85 85 83 77 75 76
158 156 152 157 153 153 158 154 162 161 157 158 160 144 144 148 146 148 145 140 138 139 141 141 141 134 133 137 152 156 156 151 148 138 130 132 135 135 134 133 132 138 130 126 120 118 108 114 118 125 133 128 127 130 127 121 124 161 212 247 269 282 297 284 117 107 90 84 83 85 87 78 81 87 91 88 90 88 89 89 88 82 85 89 81
159 157 152 162 158 159 161 160 165 162 161 160 159 157 152 148 149 150 146 144 143 143 144 143 146 146 145 144 162 157 154 153 153 147 143 142 143 143 138 135 136 134 134 126 124 116 119 120 120 128 131 131 131 133 130 128 146 192 200 243 260 274 269 74 64 78 80 78 87 92 90 90 94 96 96 97 89 90 90 89 89 87 83 80 79
162 164 164 163 164 166 162 165 165 164 163 161 160 162 155 154 152 148 148 147 148 149 151 152 153 152 154 159 165 166 158 158 159 154 148 150 133 131 141 141 138 136 134 128 122 119 122 126 123 120 136 133 135 136 131 144 183 189 216 239 255 265 89 113 105 93 93 98 93 94 91 98 99 100 103 95 99 99 97 95 88 87 88 84 82
166 167 170 168 170 169 168 167 166 167 166 160 162 160 158 168 164 161 163 156 156 155 159 167 169 162 163 161 168 164 158 141 139 151 148 135 136 139 139 143 138 135 131 128 113 124 132 132 140 146 139 149 149 156 148 159 194 208 220 236 251 202 115 111 109 94 93 97 98 108 113 110 109 106 104 104 101 96 96 98 97 96 95 89 84
170 171 171 174 176 174 170 169 168 164 167 163 162 159 161 173 167 166 165 169 166 171 170 176 175 170 167 169 133 53 84 74 317 162 142 137 132 136 139 143 141 138 135 125 135 132 157 165 159 161 163 156 183 165 166 165 189 213 229 234 238 93 87 69 85 94 81 87 91 105 113 113 108 105 100 100 104 105 103 96 93 91 90 94 95
170 173 171 176 178 172 176 169 167 162 167 170 165 163 164 172 166 168 165 172 170 181 173 182 183 172 167 130 109 85 100 145 165 157 136 131 134 133 141 143 143 143 141 145 143 155 158 158 162 185 182 178 179 176 168 161 174 199 200 168 113 151 144 129 107 93 93 96 89 101 111 119 113 108 106 106 105 107 101 99 96 95 90 89 86
173 172 169 180 175 168 174 173 150 172 170 172 175 165 167 168 165 166 163 164 170 172 168 178 59 47 108 71 115 158 142 174 134 153 139 145 144 144 147 153 154 158 177 159 174 163 191 182 174 206 187 175 170 192 85 25 291 234 154 118 146 128 106 89 92 102 101 95 105 108 104 114 120 114 110 109 108 105 104 101 101 95 88 83 85
169 169 176 179 162 170 173 167 146 178 177 170 170 170 159 168 157 121 152 163 168 178 139 20 96 80 115 133 121 153 147 124 201 179 158 174 154 159 165 162 158 159 196 163 178 165 195 185 192 191 203 184 169 176 115 194 195 234 156 143 137 143 124 110 110 116 119 123 121 124 121 112 119 114 110 108 105 107 104 104 102 98 96 90 83
170 165 202 170 161 177 179 170 166 172 178 183 169 160 163 27 66 124 175 160 167 168 129 275 140 187 138 142 135 157 152 151 181 187 189 187 182 167 166 154 152 166 187 180 170 178 198 189 201 192 205 213 172 138 172 209 239 227 145 152 145 129 123 118 121 120 119 116 123 131 130 116 115 115 114 114 113 110 109 109 100 99 97 95 89
176 193 188 155 170 170 192 158 177 172 169 186 177 135 146 108 105 81 76 62 122 102 128 180 150 136 218 143 156 149 147 147 192 204 210 205 224 171 161 167 158 169 170 190 175 180 198 202 206 190 203 209 202 141 195 234 194 175 175 126 134 130 133 130 129 116 109 112 126 127 127 124 125 120 117 119 120 116 119 113 110 104 95 89 88
182 195 184 172 165 164 183 180 182 182 177 181 163 110 107 123 136 142 143 127 109 133 110 148 127 96 137 112 130 139 128 206 215 225 176 214 181 152 161 151 158 148 173 185 186 173 187 219 188 201 204 209 232 122 173 223 159 161 138 148 141 128 119 127 133 108 109 117 121 124 126 131 126 123 122 115 115 117 116 113 109 108 109 103 88
189 184 175 166 115 171 183 187 186 179 152 129 107 158 151 140 157 162 141 132 111 99 148 151 160 159 136 148 156 164 152 218 215 241 199 191 149 146 152 151 155 160 185 185 174 186 175 210 192 201 195 218 186 164 183 207 180 169 143 143 137 137 136 135 138 125 127 122 120 122 122 119 111 126 124 107 113 121 113 112 111 109 104 101 101
195 169 96 32 55 273 222 229 189 188 144 122 143 202 115 121 196 142 143 147 156 144 145 152 142 150 143 157 178 176 171 197 203 208 175 170 162 161 151 157 156 162 159 166 195 175 207 186 203 211 212 200 160 112 188 243 198 156 129 163 137 140 147 124 103 102 119 126 128 123 113 102 86 75 80 95 110 113 116 115 118 119 116 105 104
183 158 100 124 65 142 30 316 283 188 119 109 188 162 127 117 185 182 139 138 165 159 157 156 162 160 151 168 170 184 202 190 160 202 161 172 158 146 152 156 149 162 173 174 188 187 195 196 213 221 234 226 118 150 140 199 149 16 169 165 140 148 133 138 116 124 120 122 125 124 124 112 94 90 90 90 98 110 119 127 127 131 123 114 98
191 151 113 156 172 290 171 204 244 252 156 107 193 147 121 128 185 131 134 133 154 155 151 179 153 146 151 167 147 145 157 119 290 195 179 165 149 149 156 154 148 137 215 180 172 201 169 211 218 200 217 195 118 188 94 132 63 232 138 196 143 151 152 149 117 117 126 128 119 128 135 123 115 104 95 92 84 93 104 103 92 80 70 61 46
188 167 121 135 138 161 213 196 148 271 85 146 70 179 133 144 155 149 140 149 142 141 127 141 145 158 148 132 120 170 143 154 156 183 235 158 154 163 150 152 153 173 180 184 187 203 186 189 176 198 201 198 168 88 124 73 121 200 266 151 163 121 157 142 127 114 104 104 97 60 79 101 117 115 109 91 87 91 87 81 73 79 86 64 34
206 162 122 131 179 186 196 203 137 170 129 191 210 157 148 157 168 151 155 155 147 139 135 124 181 153 138 161 171 166 168 164 174 190 192 147 162 139 145 157 163 187 188 190 288 209 176 182 183 191 167 228 119 110 152 119 154 188 214 55 122 156 137 122 105 107 111 117 101 98 88 93 30 96 92 106 101 90 88 86 69 65 50 42 42
200 168 112 145 185 196 187 191 155 151 164 153 177 140 139 140 156 137 145 158 155 151 171 153 154 149 143 145 198 167 193 169 173 168 147 158 155 150 158 174 192 193 188 207 214 200 174 187 188 54 155 6 62 109 135 128 165 178 152 136 129 161 139 141 116 85 89 84 84 82 90 94 116 118 129 131 121 91 94 91 83 73 59 50 42
199 181 130 159 177 175 188 188 173 152 152 147 133 135 149 133 144 173 180 170 172 165 160 141 146 141 142 164 186 169 174 178 163 165 165 157 153 178 171 184 201 199 193 208 198 206 161 190 77 63 4 95 90 128 162 185 152 106 135 149 133 153 96 82 69 79 76 104 107 101 109 129 130 118 111 104 123 126 112 109 98 81 60 48 48
200 185 129 136 172 184 190 179 157 154 157 143 153 166 160 164 159 223 205 184 183 190 154 162 163 143 175 157 194 173 181 178 167 163 169 164 171 184 188 186 204 183 246 190 199 82 249 109 87 86 47 118 149 118 184 183 152 138 168 147 117 53 28 17 84 115 113 114 90 126 165 125 112 116 134 150 140 128 128 115 107 98 84 71 63
202 189 140 145 170 182 180 152 168 161 147 142 168 165 158 151 169 181 175 186 206 140 140 167 159 141 164 157 167 164 209 176 169 166 181 181 177 188 191 190 170 186 239 211 166 160 211 144 124 123 196 202 170 180 155 183 145 172 103 51 70 110 55 43 46 28 37 95 161 173 195 84 116 168 140 152 133 140 134 126 151 122 103 104 80
192 185 147 147 146 168 172 166 178 168 157 147 153 160 175 177 172 171 176 182 188 146 153 148 141 145 162 172 174 184 194 163 123 212 177 167 126 102 223 197 186 205 215 202 157 166 199 174 155 148 168 191 201 212 157 176 97 68 94 103 63 65 88 75 66 39 261 210 164 112 191 162 164 172 141 140 148 166 158 151 146 217 115 116 110
184 181 165 154 149 157 175 185 191 178 170 160 166 186 185 182 183 186 182 175 191 164 139 142 163 155 161 183 165 161 209 170 170 188 169 136 94 305 113 308 266 223 192 206 162 223 190 180 119 160 156 153 180 191 181 110 100 106 95 117 113 94 111 104 124 182 190 209 253 181 146 125 156 144 115 162 137 137 166 135 146 185 111 115 120
189 183 181 158 152 151 169 179 189 181 177 175 165 182 186 185 188 194 186 173 182 167 150 168 174 169 164 181 176 158 195 177 180 166 156 146 152 185 55 244 251 257 185 198 186 195 188 162 191 168 160 149 151 169 119 108 142 142 137 126 110 87 61 82 196 190 147 160 187 153 148 115 131 116 132 162 150 140 106 112 107 101 120 139 118
193 190 175 165 157 166 170 180 191 186 167 174 171 167 170 176 190 169 175 157 164 126 115 163 152 174 180 171 206 168 190 214 181 166 162 153 152 117 187 214 243 241 217 179 192 205 192 197 180 175 128 179 145 141 145 178 138 141 136 127 141 141 143 138 39 325 326 246 162 152 149 139 121 145 136 118 101 100 92 86 87 78 68 100 83
182 180 174 168 168 171 169 182 188 178 165 174 180 148 150 144 144 146 162 165 153 132 127 182 166 150 173 198 217 221 188 196 177 166 168 150 157 200 218 218 241 206 213 191 196 197 194 199 178 204 108 316 162 157 156 117 137 145 156 160 148 156 146 141 157 181 207 201 167 137 171 122 123 112 118 119 99 93 99 97 91 86 81 81 104
182 178 174 175 175 169 171 182 184 165 145 157 182 158 146 156 151 144 149 133 115 125 140 170 194 160 199 171 226 194 213 158 103 247 96 179 205 201 210 208 210 203 209 222 199 208 190 200 185 210 142 163 187 125 196 134 198 265 147 138 152 174 160 145 140 127 174 155 117 94 86 120 110 134 127 103 118 114 112 104 95 99 93 88 91
180 170 171 173 172 165 171 175 173 164 144 156 170 168 168 165 165 159 165 168 166 164 171 176 165 195 197 179 168 189 204 175 187 183 174 211 210 209 206 207 198 208 249 244 228 221 207 192 163 184 98 103 160 154 165 154 195 230 355 31 331 314 156 148 151 141 165 100 125 126 131 94 127 129 106 121 112 117 120 116 105 94 101 99 84
176 170 166 166 167 166 172 174 172 159 153 160 165 173 170 176 180 177 172 166 163 173 172 182 167 185 151 192 168 194 179 181 195 182 167 180 185 210 199 215 193 200 211 243 201 225 197 193 135 142 146 144 148 170 163 169 179 188 30 4 352 9 134 159 158 141 136 133 83 124 121 134 164 136 129 111 106 93 87 95 113 110 99 92 97
170 167 159 161 168 166 171 172 165 166 164 158 172 176 175 176 182 184 173 165 179 178 196 176 188 158 158 171 162 169 176 175 185 188 182 178 183 187 189 195 201 193 197 221 217 225 204 141 100 61 118 133 151 182 163 165 177 150 89 31 335 333 167 51 153 156 147 140 149 140 106 86 64 53 72 97 101 104 123 146 142 142 134 123 113
168 167 163 162 158 166 167 172 172 175 172 165 177 176 178 173 176 176 167 159 185 212 209 178 170 160 167 164 167 170 173 179 179 184 186 178 182 186 187 188 199 195 201 211 208 219 198 131 128 157 137 142 185 168 189 153 174 149 136 151 26 331 76 32 337 19 156 149 149 157 149 120 106 93 81 102 113 120 116 90 84 92 100 104 110
169 166 164 157 153 159 162 181 180 180 170 171 179 172 170 172 173 164 173 176 206 206 191 173 165 166 167 165 168 170 167 167 174 176 181 172 176 184 195 190 190 204 199 221 208 207 165 98 144 169 149 151 178 183 87 195 173 126 113 116 114 98 311 301 282 38 352 199 164 161 152 152 149 130 129 140 141 127 123 138 152 120 112 108 100
175 167 169 161 158 163 166 179 183 171 169 174 180 174 174 174 165 163 179 205 213 184 181 171 162 160 159 165 166 164 164 153 161 166 173 163 183 180 191 189 192 194 203 216 203 207 172 130 130 158 157 172 201 146 183 127 108 122 137 147 139 148 152 185 126 134 171 285 180 156 158 167 136 140 163 156 154 158 143 129 112 117 119 109 99